Location: Borkenes
(68.7830°N, 16.1830°E)
Time: 03:21:05
(UTC+01:00)

S-56A Canister/Altair - Visible Passes

Search period start: 13 December 2019 00:00
Search period end: 23 December 2019 00:00
Orbit: 633 x 2499 km, 38.9° (Epoch: 11 December)

Date Brightness Start Highest point End Pass type
(mag) Time Alt. Az. Time Alt. Az. Time Alt. Az.
14 Dec 12.6 08:58:51 10° S 09:03:40 12° SSE 09:08:33 10° SE visible
15 Dec 12.5 08:27:11 10° SSE 08:30:49 11° SSE 08:34:30 10° SE visible
16 Dec 12.4 07:56:44 10° SSE 07:58:00 10° SE 07:59:16 10° SE visible
17 Dec 12.3 09:19:46 10° SSW 09:26:37 15° SSE 09:33:45 10° SE visible
18 Dec 12.2 08:47:27 10° S 08:53:43 15° SSE 09:00:19 10° SE visible
19 Dec 12.1 08:15:19 10° S 08:20:51 14° SSE 08:26:43 10° SE visible
20 Dec 12.0 07:43:27 10° S 07:48:01 12° SSE 07:52:52 10° SE visible
21 Dec 11.9 07:12:01 10° SSE 07:15:14 11° SSE 07:18:36 10° SE visible
21 Dec 11.9 09:10:14 10° SSW 09:16:50 15° S 09:23:59 10° SE visible
22 Dec 11.8 08:37:51 10° SSW 08:43:58 15° S 08:50:38 10° SE visible
